This is the latest recevied weather packets stored in our database for station/object ON5MM-5. If no packets are shown the sender has not sent any weather packets the latest 10 day(s).
| Time | Temp. | Humidity | Pressure | Rain* | Wind** | Luminosity | Snow |
|---|---|---|---|---|---|---|---|
| 1777797302 | 15.56° C | 49% | 1014.2 hPa | 0 mm | 3.13 m/s, ° | - | - |
| 1777797003 | 15.56° C | 49% | 1014.2 hPa | 0 mm | 3.58 m/s, ° | - | - |
| 1777796703 | 15.56° C | 49% | 1014.3 hPa | 0 mm | 4.47 m/s, ° | - | - |
| 1777796403 | 16.11° C | 48% | 1014.3 hPa | 0 mm | 4.47 m/s, ° | - | - |
| 1777796102 | 16.11° C | 49% | 1014.3 hPa | 0 mm | 4.02 m/s, ° | - | - |
| 1777795802 | 16.11° C | 50% | 1014.3 hPa | 0 mm | 3.58 m/s, ° | - | - |
| 1777795502 | 16.11° C | 50% | 1014.3 hPa | 0 mm | 3.58 m/s, ° | - | - |
| 1777795202 | 16.11° C | 48% | 1014.1 hPa | 0 mm | 3.58 m/s, ° | - | - |
| 1777794903 | 16.11° C | 50% | 1014.1 hPa | 0 mm | 3.58 m/s, ° | - | - |
| 1777794002 | 16.67° C | 48% | 1014 hPa | 0 mm | 4.47 m/s, ° | - | - |
| 1777793701 | 16.11° C | 48% | 1014 hPa | 0 mm | 4.02 m/s, ° | - | - |
| 1777793402 | 16.11° C | 49% | 1014.1 hPa | 0 mm | 4.02 m/s, ° | - | - |
| 1777793102 | 16.11° C | 48% | 1014.1 hPa | 0 mm | 4.92 m/s, ° | - | - |
| 1777792802 | 16.11° C | 50% | 1014 hPa | 0 mm | 4.02 m/s, ° | - | - |
| 1777792502 | 16.11° C | 51% | 1014 hPa | 0 mm | 4.02 m/s, ° | - | - |
| 1777792203 | 16.11° C | 49% | 1014 hPa | 0 mm | 4.47 m/s, ° | - | - |
| 1777791902 | 16.11° C | 49% | 1014 hPa | 0 mm | 4.92 m/s, ° | - | - |
| 1777791602 | 16.11° C | 51% | 1013.9 hPa | 0 mm | 4.47 m/s, ° | - | - |
| 1777791302 | 16.11° C | 50% | 1013.9 hPa | 0 mm | 4.47 m/s, ° | - | - |
| 1777791002 | 15.56° C | 52% | 1013.9 hPa | 0 mm | 4.47 m/s, ° | - | - |
| 1777790702 | 15.56° C | 52% | 1013.9 hPa | 0 mm | 4.02 m/s, ° | - | - |
| 1777790403 | 15.56° C | 52% | 1014 hPa | 0 mm | 4.92 m/s, ° | - | - |
| 1777790102 | 15.56° C | 53% | 1014 hPa | 0 mm | 4.92 m/s, ° | - | - |
| 1777789802 | 15.56° C | 53% | 1014 hPa | 0 mm | 5.36 m/s, ° | - | - |
| 1777789502 | 15° C | 55% | 1013.9 hPa | 0 mm | 4.02 m/s, ° | - | - |
* Rain latest hour (hover to see other rain measurements)
** Current wind speed in m/s (hover to see current wind gust speed)